Location: Holkham
(52.9500°N, 0.8167°E)
Time: 21:05:49
(UTC+00:00)

COBE Rocket - Pass Details

Date: 19 May 2025
Orbit: 676 x 772 km, 97.1° (Epoch: 21 June)

Event Time Altitude Azimuth Distance (km) Brightness Sun altitude
Rises 21:50:17 0° 17° (NNE) 3,228 7.9 -12.4°
Reaches altitude 10° 21:52:41 10° 23° (NNE) 2,309 7.0 -12.5°
Maximum altitude 21:57:35 45° 96° (E) 1,050 4.5 -12.9°
Enters shadow 22:01:01 19° 161° (SSE) 1,788 5.3 -13.1°
